Location: Sungai Laei
(2.6000°N, 113.7167°E)
Time: 11:00:39
(UTC+00:00)

YAOGAN 1 - Pass Details

Date: 22 May 2022
Orbit: 617 x 619 km, 97.9° (Epoch: 06 July)

Event Time Altitude Azimuth Distance (km) Brightness Sun altitude
Exits shadow 12:07:00 18° 197° (SSW) 1,524 4.5 -23.5°
Maximum altitude 12:09:47 40° 258° (WSW) 913 3.7 -24.1°
Drops below altitude 10° 12:13:50 10° 328° (NNW) 1,976 5.9 -25.1°
Sets 12:16:07 0° 336° (NNW) 2,879 6.7 -25.6°
